• Processing (Info)

  • MPEC 2006-W81 : 2006 WR29

    The following Minor Planet Electronic Circular may be linked-to from your own Web pages, but must not otherwise be redistributed electronically.

    A form allowing access to any MPEC is at the bottom of this page.


    Read MPEC 2006-W80 Read MPEC 2006-W82


    M.P.E.C. 2006-W81                                Issued 2006 Nov. 24, 20:45 UT
    
         The Minor Planet Electronic Circulars contain information on unusual
             minor planets and routine data on comets.  They are published
       on behalf of Commission 20 of the International Astronomical Union by the
              Minor Planet Center, Smithsonian Astrophysical Observatory,
                              Cambridge, MA 02138, U.S.A.
    
                 Prepared using the Tamkin Foundation Computer Network
    
                                  MPC@CFA.HARVARD.EDU
              URL http://cfa-www.harvard.edu/iau/mpc.html  ISSN 1523-6714
    
                                       2006 WR29
    
    Observations:
         K06W29R* C2006 11 22.25361 04 40 39.15 +28 06 30.0          19.4   EW081704
         K06W29R  C2006 11 22.26609 04 40 45.20 +28 05 01.0          19.9   EW081704
         K06W29R  C2006 11 22.29095 04 40 57.53 +28 02 05.7          20.5   EW081704
         K06W29R  C2006 11 22.30340 04 41 03.60 +28 00 36.1          20.0   EW081704
         K06W29R  C2006 11 22.92898 04 46 33.03 +26 44 20.5          20.0 R EW081143
         K06W29R  C2006 11 22.93506 04 46 36.17 +26 43 35.9          20.6 R EW081143
         K06W29R  C2006 11 23.38635 04 50 28.93 +25 46 59.9          19.8 R EW081734
         K06W29R  C2006 11 23.38846 04 50 30.00 +25 46 43.8          19.9 R EW081734
         K06W29R  C2006 11 23.38957 04 50 31.74 +25 46 46.2                 EW081701
         K06W29R  C2006 11 23.39057 04 50 31.06 +25 46 27.2          19.7 R EW081734
         K06W29R  C2006 11 23.39302 04 50 32.29 +25 46 08.4          19.5 R EW081734
         K06W29R  C2006 11 23.39522 04 50 33.38 +25 45 51.2          19.8 R EW081734
         K06W29R  C2006 11 23.40346 04 50 38.34 +25 45 02.8                 EW081701
         K06W29R  C2006 11 23.41094 04 50 42.13 +25 44 03.7                 EW081701
         K06W29R  C2006 11 23.47097 04 51 12.26 +25 36 15.5          20.0 R EW081854
         K06W29R  C2006 11 23.47849 04 51 15.94 +25 35 15.9          20.0 R EW081854
         K06W29R  C2006 11 24.06703 04 56 28.19 +24 18 14.1          19.5 R EW081118
         K06W29R  C2006 11 24.06967 04 56 29.64 +24 17 52.6          19.7 R EW081118
    
    Observer details:
    118 Modra.  Observers S. Gajdos, J. Vilagi.  0.6-m f/5.5 reflector + CCD.
    143 Gnosca.  Observer S. Sposetti.  0.40-m f/4 reflector + CCD.
    701 Junk Bond Observatory, Sierra Vista.  Observer D. Healy.  0.81-m f/4.4
        Ritchey-Chretien + CCD.
    704 Lincoln Laboratory ETS, New Mexico.  Observers M. Bezpalko, D. Torres,
        R. Kracke, G. Spitz, J. Kistler.  Measurers J. Stuart, S. Scruggs.  1.0-m
        f/2.15 reflector + CCD.
    734 Farpoint Observatory.  Observer G. Hug.  0.7-m reflector + CCD.
    854 Sabino Canyon Observatory, Tucson.  Observer J. E. McGaha.  0.36-m f/10.0
        Schmidt-Cassegrain + CCD.
    
    Orbital elements:
    2006 WR29                                                Earth MOID = 0.0872 AU
    Epoch 2006 Sept. 22.0 TT = JDT 2454000.5                MPC
    M 338.00662              (2000.0)            P               Q
    n   0.27669199     Peri.  197.38198     +0.16399253     -0.96928404
    a   2.3324105      Node   243.50829     +0.92765446     +0.21472476
    e   0.5439947      Incl.   11.81735     +0.33550507     -0.11992381
    P   3.56           H   24.2           G   0.15           U   7
    Residuals in seconds of arc
    061122 704  1.9+  1.0+    061123 734  0.7-  0.2+    061123 701  1.1-  1.0+
    061122 704  0.7+  0.3-    061123 734  0.5-  0.4+    061123 701  0.1+  0.1-
    061122 704  2.5+  0.1-    061123 701 (2.5+  3.0-)   061123 854  1.3+  0.8+
    061122 704  2.1+  1.4-    061123 734  0.4-  0.2+    061123 854  0.2-  0.2+
    061122 143  0.9-  0.0     061123 734  0.3-  0.4+    061124 118  1.1-  0.0
    061122 143  0.5+  0.2+    061123 734  0.5-  0.3+    061124 118  0.6+  0.3-
    
    Ephemeris:
    2006 WR29                a,e,i = 2.33, 0.54, 12                  q = 1.0636
    Date    TT    R. A. (2000) Decl.     Delta      r     Elong.  Phase     V
    2006 11 21    04 29.73   +30 28.6    0.105    1.090   165.3    13.3    20.3
    2006 11 23    04 47.13   +26 36.2    0.100    1.085   166.1    12.6    20.1
    2006 11 25    05 04.69   +22 12.2    0.0961   1.080   165.2    13.5    20.1
    2006 11 27    05 22.13   +17 22.3    0.0935   1.076   162.6    15.9    20.1
    2006 11 29    05 39.15   +12 15.2    0.0922   1.073   158.7    19.5    20.2
    2006 12 01    05 55.53   +07 02.2    0.0923   1.070   154.1    23.7    20.3
    2006 12 03    06 11.06   +01 55.0    0.0938   1.068   149.4    28.1    20.4
    2006 12 05    06 25.61   -02 56.2    0.0965   1.066   144.7    32.3    20.6
    2006 12 07    06 39.09   -07 24.2    0.100    1.064   140.4    36.2    20.8
    2006 12 09    06 51.47   -11 25.1    0.105    1.064   136.6    39.5    21.0
    2006 12 11    07 02.75   -14 57.5    0.111    1.064   133.2    42.4    21.2
    2006 12 13    07 12.97   -18 02.4    0.117    1.064   130.4    44.8    21.4
    2006 12 15    07 22.19   -20 41.8    0.124    1.065   128.1    46.7    21.6
    2006 12 17    07 30.47   -22 58.1    0.131    1.067   126.1    48.2    21.7
    2006 12 19    07 37.88   -24 54.1    0.138    1.069   124.6    49.3    21.9
    2006 12 21    07 44.50   -26 32.3    0.146    1.071   123.5    50.0    22.0
    
    Gareth V. Williams           (C) Copyright 2006 MPC           M.P.E.C. 2006-W81
    

    Read MPEC 2006-W80 Read MPEC 2006-W82


    MPEC number:

    Enter an MPEC number in one of the following forms:

    • 1997-B01 (the full form)
    • J97B01 (the packed version of the full form)
    • B01 (the abbreviated form)